TimeEDT,TemperatureF,Dew PointF,Humidity,Sea Level PressureIn,VisibilityMPH,Wind Direction,Wind SpeedMPH,Gust SpeedMPH,PrecipitationIn,Events,Conditions,WindDirDegrees,DateUTC
12:53 AM,75.9,64.0,67,30.06,10.0,ENE,3.5,-,N/A,,Clear,70,2013-04-03 04:53:00
1:53 AM,75.0,64.9,71,30.06,10.0,Calm,Calm,-,N/A,,Clear,0,2013-04-03 05:53:00
2:53 AM,75.9,66.0,71,30.04,10.0,East,3.5,-,N/A,,Clear,100,2013-04-03 06:53:00
3:53 AM,75.9,66.0,71,30.02,10.0,East,4.6,-,N/A,,Clear,90,2013-04-03 07:53:00
4:53 AM,75.9,66.0,71,30.02,10.0,East,4.6,-,N/A,,Clear,100,2013-04-03 08:53:00
5:53 AM,75.9,66.0,71,30.02,10.0,East,5.8,-,N/A,,Clear,100,2013-04-03 09:53:00
6:53 AM,75.9,64.9,69,30.02,10.0,ESE,6.9,-,N/A,,Clear,110,2013-04-03 10:53:00
7:53 AM,77.0,66.9,71,30.03,10.0,ESE,4.6,-,N/A,,Clear,110,2013-04-03 11:53:00
8:53 AM,80.1,68.0,67,30.03,9.0,ESE,5.8,-,N/A,,Clear,120,2013-04-03 12:53:00
9:53 AM,82.0,69.1,65,30.04,10.0,SE,9.2,17.3,N/A,,Partly Cloudy,130,2013-04-03 13:53:00
10:53 AM,82.9,69.1,63,30.05,10.0,SE,5.8,-,N/A,,Clear,140,2013-04-03 14:53:00
11:53 AM,84.0,69.1,61,30.03,10.0,SE,10.4,17.3,N/A,,Clear,130,2013-04-03 15:53:00
12:53 PM,84.0,69.1,61,30.02,10.0,SE,9.2,-,N/A,,Clear,140,2013-04-03 16:53:00
1:53 PM,84.9,69.1,59,30.01,10.0,SE,5.8,16.1,N/A,,Clear,130,2013-04-03 17:53:00
2:53 PM,84.9,69.1,59,29.99,10.0,SE,9.2,-,N/A,,Clear,130,2013-04-03 18:53:00
3:53 PM,84.9,70.0,61,29.99,10.0,Variable,6.9,-,N/A,,Partly Cloudy,0,2013-04-03 19:53:00
4:53 PM,84.0,69.1,61,29.98,10.0,ESE,6.9,-,N/A,,Clear,120,2013-04-03 20:53:00
5:53 PM,82.0,69.1,65,29.98,10.0,SE,11.5,-,N/A,,Clear,130,2013-04-03 21:53:00
6:53 PM,80.1,69.1,69,29.97,10.0,ESE,9.2,16.1,N/A,,Clear,120,2013-04-03 22:53:00
7:53 PM,80.1,69.1,69,29.98,10.0,East,9.2,-,N/A,,Scattered Clouds,90,2013-04-03 23:53:00
8:53 PM,79.0,68.0,69,30.01,10.0,East,8.1,-,N/A,,Mostly Cloudy,80,2013-04-04 00:53:00
9:53 PM,79.0,68.0,69,30.02,10.0,East,9.2,-,N/A,,Clear,100,2013-04-04 01:53:00
10:53 PM,79.0,68.0,69,30.03,10.0,ESE,9.2,16.1,N/A,,Clear,120,2013-04-04 02:53:00
11:53 PM,78.1,69.1,74,30.04,10.0,SE,9.2,16.1,N/A,,Clear,130,2013-04-04 03:53:00